Theta_e
280 277 274 274 277 278 277 276 274 276 279 277 276 276 280 282 281 280 281 281 280 281 283 287 287 287 288 287 287 288 288 288 289 288 287 287 286 287 288 289 289 289 288 288
278 274 276 278 280 278 277 275 275 277 279 277 274 275 278 281 280 280 280 280 280 280 281 283 285 285 285 285 286 286 287 287 288 288 288 288 287 288 288 289 289 289 289 288
275 276 279 279 277 278 276 276 275 275 278 276 276 274 275 277 278 278 278 280 280 279 279 280 282 283 283 283 283 285 285 286 286 287 287 286 286 286 286 286 287 287 288 288
274 277 278 277 276 277 276 278 278 279 275 269 275 270 273 276 275 277 279 277 278 278 279 279 280 281 283 283 283 284 285 285 286 287 286 285 284 283 285 286 287 287 287 287
274 274 275 275 277 279 278 279 279 278 274 271 271 267 273 275 276 277 277 278 278 279 279 279 280 281 282 283 282 282 283 284 285 285 285 285 284 284 285 285 285 286 286 287
273 274 275 276 278 279 281 278 277 276 273 264 267 269 273 273 277 278 280 279 279 279 279 280 281 280 281 281 282 282 282 283 284 284 284 284 284 284 284 284 284 285 285 286
274 273 274 277 276 278 278 274 266 268 266 268 270 267 276 278 277 279 280 280 280 280 279 280 280 279 280 280 281 282 282 283 284 284 284 284 284 284 283 284 284 283 284 284
271 273 273 275 274 274 275 272 269 263 265 267 268 268 277 278 279 279 280 280 279 279 280 280 281 281 281 281 281 281 282 282 283 283 283 284 284 284 284 284 284 284 284 284
269 272 273 276 274 274 272 271 271 260 251 261 268 272 277 277 277 278 278 278 279 279 280 280 281 281 281 281 281 281 282 283 283 283 284 283 283 283 283 284 284 284 284 284
274 270 273 274 274 274 273 274 269 265 264 263 268 267 276 278 280 278 277 278 280 280 279 280 281 281 282 282 282 281 282 282 283 283 284 284 283 284 284 283 283 283 284 284
274 273 270 273 271 270 269 270 269 268 267 265 263 273 278 279 281 279 279 279 281 281 281 281 282 282 283 283 282 281 281 282 282 283 283 284 283 284 283 283 283 283 284 283
277 272 265 271 269 271 272 271 271 269 266 264 266 272 280 280 280 280 280 280 280 282 283 282 282 282 281 282 282 282 282 282 282 283 283 283 284 283 283 283 283 284 283 283
277 270 265 270 270 270 269 271 272 266 266 264 267 276 278 278 278 279 279 280 280 281 281 282 280 280 281 282 282 282 283 282 283 283 282 282 282 282 282 283 283 283 283 283
281 270 273 275 275 271 267 269 270 269 264 270 273 278 282 282 281 281 280 280 281 280 282 283 282 281 282 283 283 283 283 283 283 282 282 282 282 282 283 283 283 283 283 283
277 271 269 269 270 270 272 272 271 270 274 272 280 278 282 283 284 285 285 283 280 281 280 281 282 283 283 282 282 283 283 283 283 282 282 282 282 283 282 282 282 282 282 282
275 272 267 272 269 272 272 276 274 273 275 275 279 278 285 285 282 281 283 282 281 282 283 283 282 283 283 283 283 283 283 283 283 282 282 283 282 282 282 282 281 281 281 281
273 273 272 273 267 268 271 276 277 276 276 277 274 279 284 283 284 285 285 282 282 284 283 284 283 283 284 284 284 283 283 283 282 282 282 282 282 281 281 281 281 280 280 280
271 271 273 273 269 268 277 272 275 277 278 279 279 281 282 283 285 285 281 282 283 285 284 284 285 284 284 285 285 285 284 282 281 282 282 282 281 281 280 280 280 279 279 278
277 276 272 271 270 274 277 274 274 274 279 279 279 281 282 283 280 282 285 285 284 286 287 286 287 285 285 284 285 284 282 282 281 281 282 281 281 280 279 278 278 278 277 275
270 268 273 273 269 269 278 276 276 276 273 281 280 281 281 278 275 282 286 285 284 284 285 285 285 283 282 283 283 282 282 281 281 282 282 280 280 279 278 277 276 275 275 273
259 261 267 269 271 274 281 279 280 272 277 281 281 281 280 278 282 285 282 282 282 283 284 283 281 283 283 281 281 281 281 280 282 281 279 278 278 278 277 275 273 273 272 271
269 263 260 265 267 267 279 276 277 283 285 282 280 281 281 282 283 282 283 283 282 282 281 280 280 280 279 280 281 280 280 281 279 277 277 276 276 276 275 273 272 272 270 267
272 274 276 272 273 278 278 282 282 279 278 278 279 279 281 281 283 285 285 285 283 281 282 279 280 279 278 279 280 280 280 277 276 276 275 274 274 273 273 272 270 269 269 267
280 283 278 278 281 282 284 284 283 283 283 285 286 285 285 284 285 284 283 283 283 282 280 278 277 277 277 277 279 281 277 277 277 275 273 272 272 271 271 271 270 268 267 266
280 281 279 279 282 284 285 286 287 287 287 286 287 287 286 286 284 283 282 282 282 281 279 279 278 279 278 276 276 276 277 277 275 273 272 271 271 270 269 269 268 268 267 268
280 278 276 276 282 282 283 286 286 285 285 287 286 286 288 285 282 283 283 283 282 281 279 278 278 277 277 276 275 275 277 277 274 272 271 270 269 268 268 268 268 272 272 271
Wind_Speed
7 12 7 5 5 4 7 4 2 3 2 2 3 5 8 7 6 8 7 7 7 7 5 7 8 8 7 5 5 5 5 5 4 3 3 1 2 2 3 3 5 5 5 7
8 5 2 4 3 6 4 3 3 4 2 1 5 13 10 10 9 9 10 9 9 5 5 6 8 8 8 8 8 7 8 7 5 3 2 2 3 1 1 2 3 4 5 5
7 4 1 1 5 4 4 4 1 3 5 2 9 6 4 5 6 5 8 8 8 12 11 9 9 10 8 9 9 8 7 6 4 5 3 2 2 2 1 1 1 1 3 4
5 2 2 3 3 2 2 1 1 3 4 2 6 7 6 5 8 10 14 12 13 12 8 8 10 9 11 11 7 7 7 7 6 6 5 5 4 4 3 2 2 2 2 3
3 1 1 2 3 1 3 1 2 2 3 3 6 4 9 2 8 16 18 17 16 15 14 14 13 13 12 9 9 8 8 7 7 7 6 5 4 3 2 2 3 3 2 3
2 2 4 1 1 0 3 1 3 3 2 5 5 4 9 7 9 5 11 18 19 17 16 15 13 11 10 9 10 10 10 10 8 7 7 7 7 5 4 3 3 3 2 2
1 1 1 2 2 4 3 4 5 8 7 5 1 2 15 7 9 7 9 15 17 16 16 16 16 14 13 14 14 12 12 13 11 10 9 9 8 6 6 5 4 4 3 3
4 7 3 2 2 2 3 2 7 5 3 6 3 9 10 8 6 8 7 6 8 13 14 17 18 16 15 16 15 14 14 14 12 11 11 9 9 6 6 7 5 5 5 5
5 4 1 2 2 3 1 1 1 9 1 3 4 9 14 6 12 9 9 9 11 14 16 18 16 16 16 16 16 17 16 15 13 13 12 11 10 10 10 10 7 6 6 6
4 2 1 1 2 4 2 4 4 4 3 7 7 7 11 6 8 6 10 14 14 10 12 15 15 17 15 17 16 15 16 17 16 15 13 12 13 12 11 9 10 10 8 8
4 4 2 1 9 10 3 3 3 3 5 6 3 9 11 11 9 9 11 11 12 13 15 15 15 15 15 14 15 16 16 16 15 14 14 13 11 11 10 10 10 10 7 8
6 6 5 8 2 1 4 7 7 7 7 3 2 17 5 9 1 5 9 9 9 12 13 13 14 13 14 17 15 18 16 17 17 15 13 13 12 11 11 11 10 9 10 7
8 4 3 8 3 4 6 6 5 4 4 10 6 14 1 1 6 8 11 10 10 10 10 11 10 15 16 17 18 18 18 19 16 14 14 13 13 12 13 12 10 8 8 8
4 2 10 18 12 7 7 9 12 8 5 6 20 34 23 11 11 10 10 12 13 11 13 13 12 17 18 18 19 18 19 18 16 16 15 15 14 14 12 10 10 9 8 8
6 9 6 6 3 3 8 7 16 18 22 16 37 30 28 16 20 22 20 13 11 14 13 15 16 17 18 17 17 17 18 17 17 17 16 17 14 12 10 10 9 8 8 8
6 7 4 13 4 8 26 18 19 28 24 30 29 47 25 17 8 11 16 10 19 21 18 16 16 16 16 18 19 17 18 18 17 18 18 15 13 12 12 10 9 8 8 7
7 5 5 26 3 4 21 14 28 24 20 26 28 41 24 23 23 28 19 15 20 19 19 18 19 20 19 19 19 20 20 16 17 18 17 15 14 13 12 10 9 9 8 6
8 5 4 7 3 15 15 4 3 22 26 25 27 26 25 23 23 17 5 10 17 18 18 20 17 16 17 17 16 16 14 16 16 17 16 15 15 13 11 10 9 6 5 6
9 8 6 11 15 18 36 6 5 8 29 21 26 27 26 23 13 22 20 18 22 21 16 16 16 15 11 13 15 15 13 15 16 17 17 15 15 13 11 10 9 5 5 4
3 6 8 12 9 16 27 4 6 1 17 18 20 19 15 6 6 17 7 5 8 10 9 13 10 6 7 10 10 14 15 15 18 17 16 14 13 13 12 10 8 4 4 6
3 2 17 18 17 8 25 8 6 11 5 7 2 9 8 7 11 11 5 8 5 6 7 6 6 10 12 6 9 13 12 17 15 10 10 11 11 12 10 9 4 7 8 8
13 9 7 4 8 18 6 3 17 17 16 7 6 7 7 7 9 10 15 14 10 10 6 5 6 9 3 5 10 12 14 8 9 10 11 11 11 9 9 12 8 8 8 8
14 15 13 15 10 8 8 15 9 4 4 4 5 3 5 11 16 21 23 22 16 11 9 6 8 8 6 8 10 12 11 11 12 13 12 12 11 10 9 11 10 7 7 6
22 19 21 26 27 30 28 22 17 17 20 18 15 15 14 20 23 23 18 16 14 11 8 3 5 8 9 10 10 8 10 15 14 15 14 12 13 11 9 7 6 7 6 5
19 23 30 31 27 24 24 25 25 26 20 24 23 24 23 21 23 19 17 15 13 9 6 5 8 11 10 8 7 9 10 15 16 15 13 12 11 11 10 7 6 6 5 6
15 21 18 23 24 22 26 18 11 16 22 25 23 26 27 19 18 18 17 14 12 11 6 6 6 7 6 10 9 10 13 16 17 14 11 11 11 9 9 9 9 13 11 10
Wind_Direction
10 58 49 334 348 106 122 102 88 289 321 310 274 264 247 230 239 246 241 240 239 234 231 189 193 200 200 200 218 214 191 197 181 152 145 128 114 117 102 100 102 89 82 76
42 63 295 260 51 71 45 83 358 277 322 302 345 282 245 202 229 225 229 229 228 222 221 205 197 198 201 198 207 202 202 196 191 194 162 157 158 167 128 145 111 103 96 91
100 172 271 130 35 45 36 89 358 208 318 94 320 287 233 235 225 231 230 228 223 215 212 209 205 205 201 208 204 204 202 201 193 188 150 132 125 123 185 175 166 134 122 112
85 275 162 107 76 350 61 254 277 358 22 311 21 286 279 233 244 221 230 219 224 215 212 212 208 211 211 217 205 210 202 197 198 182 177 183 184 172 190 183 167 180 148 140
356 359 325 70 177 189 156 77 35 52 78 58 358 70 272 341 256 236 223 220 218 212 206 210 208 208 209 203 204 207 208 206 202 194 195 187 184 184 164 186 198 207 197 194
75 318 336 37 334 21 144 159 73 56 79 33 263 111 278 201 215 234 214 214 211 207 205 208 207 200 208 199 199 202 203 213 206 201 202 198 196 190 191 209 216 217 226 225
140 278 323 329 43 344 26 52 347 358 10 222 177 11 247 246 231 224 218 221 211 204 203 207 205 198 203 200 203 202 200 214 205 204 205 204 209 201 209 212 218 216 229 224
138 321 168 80 36 284 8 111 146 238 264 273 8 240 251 214 226 225 235 237 214 212 210 209 207 205 206 206 203 201 198 212 204 205 209 205 205 205 212 215 212 221 222 227
129 257 75 48 55 71 271 32 106 99 97 29 242 280 287 239 253 230 228 225 225 214 210 211 206 205 203 202 203 200 205 211 205 205 206 207 204 201 211 216 208 221 224 231
204 14 32 123 120 49 165 153 62 4 326 299 280 276 243 277 267 228 230 228 229 218 214 212 208 208 206 207 205 202 205 208 207 207 206 212 207 209 212 204 211 215 224 218
123 111 275 99 201 176 151 209 54 122 150 199 291 251 215 221 237 238 242 233 223 218 217 216 215 213 210 208 203 204 204 205 210 205 209 208 206 216 214 214 215 218 218 216
197 150 193 206 143 171 183 188 166 136 233 234 173 266 179 237 199 200 264 253 238 222 217 213 217 207 202 208 207 208 204 206 210 206 208 207 206 206 209 218 215 212 222 208
195 229 348 326 12 356 222 202 155 110 82 196 167 258 154 17 301 264 259 258 244 239 230 220 195 204 212 214 211 210 207 210 205 199 200 203 208 208 211 215 212 205 214 222
128 193 186 251 234 133 193 201 197 149 141 232 223 268 247 262 278 271 253 249 250 232 231 225 221 217 215 215 213 211 212 208 201 197 197 201 207 207 214 211 205 201 202 216
157 239 188 249 240 233 241 189 185 200 218 214 271 244 262 232 245 250 251 250 251 242 234 227 225 223 219 214 214 213 214 205 198 197 198 208 199 201 203 204 203 199 194 210
176 245 133 276 213 241 271 240 210 214 225 243 257 271 262 286 261 256 252 242 248 248 242 236 227 229 225 219 216 211 212 207 194 199 204 201 192 191 199 201 195 193 197 198
168 173 142 260 71 319 275 247 231 226 216 223 237 249 287 269 264 264 273 240 253 262 248 239 226 226 223 217 212 211 209 197 193 198 201 194 189 192 194 190 184 188 191 178
173 171 174 258 59 250 267 350 269 221 231 222 246 260 261 266 267 276 246 263 268 261 259 252 243 234 227 219 212 211 197 193 193 198 197 193 186 189 181 175 181 173 166 174
230 194 235 232 233 274 292 253 173 195 264 217 234 246 253 261 307 286 264 252 254 261 265 259 254 241 238 213 207 198 192 192 191 198 195 186 178 179 167 173 173 154 142 140
67 24 239 223 240 229 257 300 311 36 290 198 220 254 250 122 254 273 293 244 280 268 255 260 257 242 214 215 188 190 198 191 199 197 192 173 169 165 168 162 146 128 128 137
97 154 222 235 245 246 259 266 349 279 272 310 223 238 261 202 223 278 319 285 249 249 273 267 226 238 239 180 174 201 196 206 202 172 156 154 155 149 142 128 121 131 127 121
208 186 201 222 241 254 146 227 221 260 291 295 291 278 255 250 273 281 284 282 279 269 260 233 248 240 215 185 191 201 208 186 143 142 140 132 126 124 128 126 123 125 126 117
242 216 240 200 215 212 207 226 241 343 284 280 302 282 259 272 289 294 289 291 283 256 242 203 213 239 184 183 205 220 182 145 136 130 125 122 115 116 122 126 128 120 115 124
252 255 252 260 257 261 262 262 268 270 279 278 276 284 284 286 288 281 279 281 281 283 265 193 220 231 226 190 203 196 172 141 142 132 128 125 120 117 111 111 116 120 126 130
255 257 256 255 256 266 262 266 274 276 272 280 284 278 274 270 268 266 269 274 268 264 247 205 224 240 229 171 157 149 169 151 136 130 129 123 121 120 112 97 112 118 116 130
255 261 257 266 266 260 270 278 282 290 289 285 287 285 283 273 251 258 265 263 259 260 241 225 234 247 223 159 155 158 172 149 134 129 131 133 127 123 121 122 118 114 114 109